STARLINK-11263, 60725

Orbit data source: Space-Track

STARLINK-11263, 60725 is a payload satellite owned by SpaceX/Seattle (US) in LEO that was launched on Wed, 28 Aug 2024 UTC via an FALCON 9 launch vehicle from the Air Force Eastern Test Range (AFETR). Payloads include a variety of satellites, spacecraft, and rockets equipped with specific instruments for various scientific and technological missions. These include communications satellites like Starlink; space stations such as the ISS; scientific satellites like the Hubble; Earth observation satellites from companies like Planet Labs, Umbra, and HawkEye 360; GPS; miniature CubeSats for education and research; and military/defense satellites.

Loading next visibility...
STARLINK-11263 details
Identifier
60725, 2024-152F
Orbit
LEO
Last TLE update18 hours ago
Origin
Flag of USSpaceX/Seattle (US)
ManufacturerSpaceX/Seattle
MissionOperational spacecraft
Bus & MotorSTARLINK V2M, Unknown motor
Mass730 kg wet, ~700 kg dry
Launch date (UTC)
2024-08-28 (4 months ago)
Launch vehicle
FALCON 9
Launch site
Air Force Eastern Test Range (AFETR)
Object type
Payload
Rocket body
Debris
Shape & HBRUnknown
Radar Cross SectionLarge (>1 m²)

Expand to show TLE details & history

TLE from 18 hours ago
0 STARLINK-11263
1 60725U 24152F   24355.84458741  .00000607  00000-0  98585-5 0  9997
2 60725  53.1593 144.2940 0000588  75.1557 284.9526 15.69711189 19142
Epoch: 2024-12-20T20:16Z
Definitive object data (Epoch: 2024-12-20T20:16:12.352Z)
Latitude-0.00001°
Longitude110.33826°
Altitude360.536 km
Speed7.694 km/s
True Right ascension09h 37m 10s
True Declination0° 00' 00"
Sunlit
Object was in full shadow at TLE epoch
Visualization TLE readout
Latitude-35.38899°
Longitude74.65734°
Altitude371.215 km
Speed7.686 km/s
Apparent Right ascension04h 33m 19s
Apparent Declination-46° 27' 05"
Sunlit
Object is in full shadow
Visualization observer readout
Local Sidereal Time13:26:46
Azimuth243.261° WSW
Elevation-55.885°
Doppler factor1
Orbital elements
Apogee altitude360.38 km
Perigee altitude359.588 km
Semi-major axis6,738.121 km
Eccentricity0.0000588
Inclination53.1593°
RAAN144.294°
Arg. of periapsis75.1557°
True anomaly284.94609°
Mean anomaly284.9526°
Eccentric anomaly284.94935°
Mean motion3.92405 °/min
BSTAR0.0000098585
Orbital period91.74 mins
Loading maneuver chart data...
Loading historical data...
Loading historical data...
Loading historical data...
Loading historical data...
Loading historical data...
Loading historical data...
Loading historical data...

STARLINK-11263 Visibility forecast

Observer location: undefined°, undefined

Span
Click to sort rows by Start time (UTC) header in descending order
Start Az.
Max El. time (UTC)
Max El. Az.
Max El.
End time (UTC)
End Az.
4 mins2024-12-21 19:42:39.344Z305.198° NW2024-12-21 19:43:39.344Z279.745° WNW43.869°2024-12-21 19:46:39.344Z133.966° SE
|